TimeCST,TemperatureF,Dew PointF,Humidity,Sea Level PressureIn,VisibilityMPH,Wind Direction,Wind SpeedMPH,Gust SpeedMPH,PrecipitationIn,Events,Conditions,WindDirDegrees,DateUTC
12:15 AM,7.7,4.3,86,29.99,10.0,Calm,Calm,-,N/A,,Clear,0,2013-02-23 06:15:00
12:35 AM,4.5,1.4,87,29.99,10.0,Calm,Calm,-,N/A,,Clear,0,2013-02-23 06:35:00
12:55 AM,4.5,1.2,86,29.99,10.0,Calm,Calm,-,N/A,,Clear,0,2013-02-23 06:55:00
1:15 AM,3.6,0.7,88,29.99,7.0,SW,3.5,-,N/A,,Clear,230,2013-02-23 07:15:00
1:35 AM,5.9,2.8,87,29.98,10.0,SSW,3.5,-,N/A,,Clear,200,2013-02-23 07:35:00
1:55 AM,2.3,-2.0,82,29.98,10.0,South,4.6,-,N/A,,Clear,190,2013-02-23 07:55:00
2:15 AM,3.2,-0.0,86,29.98,7.0,South,4.6,-,N/A,,Clear,190,2013-02-23 08:15:00
2:35 AM,2.8,-0.8,85,29.97,7.0,South,3.5,-,N/A,,Clear,190,2013-02-23 08:35:00
2:55 AM,3.6,0.3,86,29.97,4.0,SSW,3.5,-,N/A,,Clear,200,2013-02-23 08:55:00
3:15 AM,-0.8,-5.3,81,29.96,7.0,Calm,Calm,-,N/A,,Clear,0,2013-02-23 09:15:00
3:35 AM,2.7,-0.8,86,29.96,3.0,Calm,Calm,-,N/A,,Clear,0,2013-02-23 09:35:00
3:55 AM,-0.2,-4.0,84,29.95,5.0,SE,3.5,-,N/A,,Clear,140,2013-02-23 09:55:00
4:15 AM,-2.4,-6.5,82,29.94,7.0,SSE,3.5,-,N/A,,Clear,160,2013-02-23 10:15:00
4:35 AM,-1.8,-5.6,84,29.94,7.0,SSE,3.5,-,N/A,,Clear,160,2013-02-23 10:35:00
4:55 AM,-1.5,-5.3,84,29.93,4.0,SSE,4.6,-,N/A,,Clear,160,2013-02-23 10:55:00
5:15 AM,-1.3,-5.1,84,29.94,4.0,SSE,3.5,-,N/A,,Clear,150,2013-02-23 11:15:00
5:35 AM,-2.6,-6.7,82,29.94,5.0,SSE,4.6,-,N/A,,Clear,150,2013-02-23 11:35:00
5:55 AM,-1.7,-5.6,83,29.93,7.0,SSE,4.6,-,N/A,,Clear,160,2013-02-23 11:55:00
6:15 AM,-0.4,-4.0,85,29.93,7.0,South,6.9,-,N/A,,Clear,170,2013-02-23 12:15:00
6:35 AM,-0.8,-4.5,84,29.93,7.0,South,5.8,-,N/A,,Clear,180,2013-02-23 12:35:00
6:55 AM,-1.3,-5.3,83,29.92,7.0,South,3.5,-,N/A,,Clear,180,2013-02-23 12:55:00
7:15 AM,-2.0,-5.8,84,29.92,7.0,South,4.6,-,N/A,,Clear,180,2013-02-23 13:15:00
7:35 AM,-1.3,-5.1,84,29.91,5.0,Calm,Calm,-,N/A,,Clear,0,2013-02-23 13:35:00
7:55 AM,-0.4,-4.0,85,29.91,4.0,SE,4.6,-,N/A,,Clear,130,2013-02-23 13:55:00
8:15 AM,1.4,-2.2,85,29.90,5.0,SSE,5.8,-,N/A,,Clear,150,2013-02-23 14:15:00
8:35 AM,4.3,0.9,86,29.90,5.0,SSE,6.9,-,N/A,,Clear,160,2013-02-23 14:35:00
8:55 AM,6.8,3.6,87,29.90,3.0,South,6.9,-,N/A,Snow,Light Snow,170,2013-02-23 14:55:00
9:15 AM,8.8,5.9,88,29.90,7.0,South,5.8,-,N/A,,Clear,170,2013-02-23 15:15:00
9:35 AM,12.2,9.5,89,29.90,10.0,South,4.6,-,N/A,,Clear,170,2013-02-23 15:35:00
9:55 AM,15.4,12.9,90,29.90,10.0,SSW,4.6,-,N/A,,Clear,200,2013-02-23 15:55:00
10:15 AM,16.7,14.0,89,29.90,10.0,South,8.1,-,N/A,,Clear,170,2013-02-23 16:15:00
10:35 AM,17.4,14.2,87,29.90,10.0,SSE,8.1,-,N/A,,Clear,160,2013-02-23 16:35:00
10:55 AM,18.3,13.8,83,29.89,10.0,South,9.2,-,N/A,,Clear,170,2013-02-23 16:55:00
11:15 AM,20.5,13.8,75,29.89,10.0,South,9.2,-,N/A,,Clear,170,2013-02-23 17:15:00
11:35 AM,21.9,14.5,73,29.89,10.0,South,10.4,-,N/A,,Clear,190,2013-02-23 17:35:00
11:55 AM,23.9,16.0,72,29.89,10.0,South,6.9,-,N/A,,Clear,180,2013-02-23 17:55:00
12:15 PM,25.7,17.4,71,29.88,10.0,South,8.1,-,N/A,,Clear,190,2013-02-23 18:15:00
12:35 PM,27.5,19.2,71,29.87,10.0,South,11.5,-,N/A,,Clear,180,2013-02-23 18:35:00
12:55 PM,29.3,20.1,69,29.87,10.0,South,10.4,-,N/A,,Clear,180,2013-02-23 18:55:00
1:15 PM,30.4,20.8,68,29.87,10.0,South,8.1,-,N/A,,Clear,180,2013-02-23 19:15:00
1:35 PM,31.8,22.1,67,29.86,10.0,South,8.1,-,N/A,,Clear,190,2013-02-23 19:35:00
1:55 PM,32.4,22.5,67,29.85,10.0,South,9.2,-,N/A,,Clear,190,2013-02-23 19:55:00
2:15 PM,32.2,21.9,66,29.85,10.0,South,10.4,-,N/A,,Clear,190,2013-02-23 20:15:00
2:35 PM,33.1,22.5,65,29.84,10.0,SSW,6.9,-,N/A,,Clear,210,2013-02-23 20:35:00
2:55 PM,33.8,22.5,63,29.84,10.0,SSW,8.1,-,N/A,,Clear,200,2013-02-23 20:55:00
3:15 PM,34.0,23.2,65,29.83,10.0,South,6.9,-,N/A,,Clear,170,2013-02-23 21:15:00
3:35 PM,34.2,23.9,66,29.83,10.0,South,9.2,-,N/A,,Clear,180,2013-02-23 21:35:00
3:55 PM,34.5,24.1,66,29.82,10.0,South,9.2,-,N/A,,Clear,180,2013-02-23 21:55:00
4:15 PM,34.3,24.6,68,29.82,10.0,South,6.9,-,N/A,,Clear,170,2013-02-23 22:15:00
4:35 PM,33.8,24.8,70,29.82,10.0,SSE,10.4,-,N/A,,Clear,160,2013-02-23 22:35:00
4:55 PM,33.6,25.2,71,29.81,10.0,SSE,9.2,-,N/A,,Clear,160,2013-02-23 22:55:00
5:15 PM,32.9,24.8,72,29.81,10.0,South,6.9,-,N/A,,Clear,170,2013-02-23 23:15:00
5:35 PM,32.0,24.6,74,29.81,10.0,South,6.9,-,N/A,,Clear,170,2013-02-23 23:35:00
5:55 PM,31.3,23.9,74,29.81,10.0,South,5.8,-,N/A,,Clear,170,2013-02-23 23:55:00
6:15 PM,28.2,22.6,80,29.82,10.0,South,4.6,-,N/A,,Clear,190,2013-02-24 00:15:00
6:55 PM,25.9,21.0,82,29.83,10.0,Calm,Calm,-,N/A,,Clear,0,2013-02-24 00:55:00
7:15 PM,25.5,22.3,88,29.83,10.0,SSE,5.8,-,N/A,,Clear,160,2013-02-24 01:15:00
7:35 PM,22.6,18.1,83,29.83,10.0,SSE,5.8,-,N/A,,Clear,150,2013-02-24 01:35:00
7:55 PM,21.0,18.1,89,29.84,7.0,SSE,5.8,-,N/A,,Clear,150,2013-02-24 01:55:00
8:15 PM,20.5,18.3,91,29.83,7.0,SSE,3.5,-,N/A,,Clear,160,2013-02-24 02:15:00
8:35 PM,21.4,18.9,90,29.84,7.0,SSE,6.9,-,N/A,,Clear,150,2013-02-24 02:35:00
8:55 PM,23.5,21.2,91,29.85,7.0,South,6.9,-,N/A,,Clear,180,2013-02-24 02:55:00
9:15 PM,23.2,20.7,90,29.85,7.0,South,6.9,-,N/A,,Clear,170,2013-02-24 03:15:00
9:35 PM,22.3,20.3,92,29.85,7.0,South,4.6,-,N/A,,Clear,170,2013-02-24 03:35:00
9:55 PM,23.0,21.0,92,29.85,7.0,SSE,5.8,-,N/A,,Clear,160,2013-02-24 03:55:00
10:15 PM,24.4,22.1,91,29.87,7.0,South,4.6,-,N/A,,Clear,180,2013-02-24 04:15:00
10:35 PM,23.9,21.2,89,29.87,7.0,South,5.8,-,N/A,,Clear,170,2013-02-24 04:35:00
10:55 PM,20.8,18.1,89,29.87,5.0,South,3.5,-,N/A,,Clear,170,2013-02-24 04:55:00
11:15 PM,23.7,22.1,94,29.87,7.0,South,4.6,-,N/A,,Clear,190,2013-02-24 05:15:00
11:35 PM,20.8,18.9,92,29.87,5.0,South,4.6,-,N/A,,Clear,180,2013-02-24 05:35:00
11:55 PM,21.2,19.4,93,29.87,5.0,South,4.6,-,N/A,,Clear,170,2013-02-24 05:55:00